This is the latest recevied weather packets stored in our database for station/object NK2J. If no packets are shown the sender has not sent any weather packets the latest 10 day(s).
| Time | Temp. | Humidity | Pressure | Rain* | Wind** | Luminosity | Snow |
|---|---|---|---|---|---|---|---|
| 1776894733 | 30° C | 20% | 1014.5 hPa | 0 mm | - | 544 W/m² | - |
| 1776894429 | 30° C | 21% | 1014.4 hPa | 0 mm | - | 579 W/m² | - |
| 1776894125 | 30° C | 20% | 1014.6 hPa | 0 mm | - | 611 W/m² | - |
| 1776893819 | 29.44° C | 19% | 1014.6 hPa | 0 mm | - | 609 W/m² | - |
| 1776893516 | 30° C | 19% | 1014.8 hPa | 0 mm | - | 612 W/m² | - |
| 1776893214 | 28.89° C | 20% | 1014.9 hPa | 0 mm | - | 637 W/m² | - |
| 1776892911 | 28.89° C | 20% | 1015.1 hPa | 0 mm | - | 651 W/m² | - |
| 1776892608 | 29.44° C | 19% | 1014.9 hPa | 0 mm | - | 631 W/m² | - |
| 1776892304 | 29.44° C | 19% | 1015.3 hPa | 0 mm | - | 639 W/m² | - |
| 1776892001 | 28.89° C | 20% | 1015.4 hPa | 0 mm | - | 665 W/m² | - |
| 1776891698 | 28.89° C | 20% | 1015.5 hPa | 0 mm | - | 692 W/m² | - |
| 1776891394 | 29.44° C | 19% | 1015.8 hPa | 0 mm | - | 659 W/m² | - |
| 1776891090 | 30° C | 19% | 1015.6 hPa | 0 mm | - | 680 W/m² | - |
| 1776890786 | 28.89° C | 19% | 1015.7 hPa | 0 mm | - | 699 W/m² | - |
| 1776890485 | 28.89° C | 20% | 1015.9 hPa | 0 mm | - | 698 W/m² | - |
| 1776890181 | 28.33° C | 21% | 1015.9 hPa | 0 mm | - | 600 W/m² | - |
| 1776889877 | 29.44° C | 21% | 1016.1 hPa | 0 mm | - | 641 W/m² | - |
| 1776889574 | 28.33° C | 20% | 1016 hPa | 0 mm | - | 658 W/m² | - |
| 1776889269 | 28.33° C | 20% | 1016.2 hPa | 0 mm | - | 662 W/m² | - |
| 1776888964 | 28.33° C | 21% | 1016 hPa | 0 mm | - | 624 W/m² | - |
| 1776888663 | 28.89° C | 21% | 1016.2 hPa | 0 mm | - | 583 W/m² | - |
| 1776888360 | 28.33° C | 21% | 1016.3 hPa | 0 mm | - | 624 W/m² | - |
| 1776888057 | 28.89° C | 22% | 1016.3 hPa | 0 mm | - | 664 W/m² | - |
| 1776887752 | 28.33° C | 21% | 1016.5 hPa | 0 mm | - | 674 W/m² | - |
| 1776887450 | 28.89° C | 21% | 1016.4 hPa | 0 mm | - | 650 W/m² | - |
* Rain latest hour (hover to see other rain measurements)
** Current wind speed in m/s (hover to see current wind gust speed)